Terminal Aerodrome Forecast
Issued by NWS

Home | Current Version | Previous Version | Text Only | Print | Product List | Glossary On
Versions: 1 2 3 4 5 6 7 8 9 10 11 12 13
000
FTUS46 KMTR 041120
TAFSJC
TAF
KSJC 041120Z 0412/0512 12004KT P6SM FEW200
     FM041800 31011KT P6SM SCT200
     FM050400 26008KT P6SM SCT120 BKN200=

USA.gov is the U.S. government's official web portal to all federal, state and local government web resources and services.